Starlink 30178

operational
NORAD ID: 57447 Int'l Des: 2023-105 Owner: SPXS Country: US Constellation: starlink
LEOCIRCULAR

关于 Starlink 30178

正在加载描述...

实时位置

正在加载3D地球...

即将过境

高度历史

Altitude vs Time

uPlot chart will show altitude changes over time

两行轨道根数

1 57447U 23105T 26035.12876842 .00001839 00000-0 15119-3 0 9993
2 57447 43.0016 83.8786 0000774 242.7438 117.3326 15.02523872140510
Epoch: Feb 4, 2026 • Age: 12 hours

当前状态

高度 558.2 km
速度 7.59 km/s
星下点 15.59°N, 115.21°W
发射日期 Jul 24, 2023
运行时间 2.5 years
类型 internet

技术详情

分类 Payload
质量 730.00 kg
干质量 700.00 kg
总质量 730.00 kg
长度 0.30 m
直径 4.10 m
跨度 29.00 m
形状 Box + pan
制造商 SPXS
平台类型 Starlink V2M
阶段状态 In Orbit
所有者/国家 SPXS/US

大型星座

Loading constellations...